KFYVKCDH

Guest
Details From KFYV - DRAKE FLD
To KCDH - HARRELL FLD
Flight Number -
Tags decoded
Created
Modified
Stats Distance 159 nm / 294 km
Max Altitude 0 ft / 0 m
Waypoints 2
Social Downloads 1
Likes 0
Share VATSIM

Download

Looking for another format? Having issues loading an existing format? Contact us
Advertisement - Login to hide

Notes

Requested: KFYV KCDH

Route

KFYV KCDH

ID Type Via Altitude Latitude Longitude Leg Dist Tot Dist Heading (true) Name
O KFYV APT - 0 ft / 0 m 36.00509˚ -94.17006˚ - 0 nm - DRAKE FLD
O KCDH APT - 0 ft / 0 m 33.62280˚ -92.76340˚ 158 nm 158 nm 154° / 155° HARRELL FLD

Altitude Profile

Advertisement - Login to hide

KFYV

Details ICAO KFYV (FYV)
Name DRAKE FLD
Region United States
Timezone America/Chicago (UTC-5.0)
Stats Elevation 1,251 ft / 381 m (AMSL)
Location 36.005094° -94.170057°
Runways 1
Magnetic Variation 1.469° E

METAR

KFYV 201237Z 30003KT 10SM BKN025 BKN030 23/21 A3008 RMK AO2 T02330206

Decode

TAF

TAF KFYV 201120Z 2012/2112 19009KT P6SM BKN250 FM201900 21006KT P6SM VCTS BKN050CB FM210100 VRB03KT P6SM BKN250

Decode

Departure Runways

ID Width Length Bearing (true) Bearing (mag) Surface Threshold Offset Overrun Length
16 100 ft / 30 m 6,018 ft / 1,834 m 168.99° 167.52° Asphalt 0 ft / 0 m 0 ft / 0 m
34 100 ft / 30 m 6,018 ft / 1,834 m 349.00° 347.53° Asphalt 0 ft / 0 m 0 ft / 0 m

KCDH

Details ICAO KCDH
Name HARRELL FLD
Region United States
Timezone America/Chicago (UTC-5.0)
Stats Elevation 130 ft / 40 m (AMSL)
Location 33.622799° -92.763396°
Runways 1
Magnetic Variation 0.631° E

METAR

KCDH 201235Z AUTO 00000KT 5SM HZ CLR 23/20 A3002 RMK AO2

Decode

TAF

Not found

Destination Runways

ID Width Length Bearing (true) Bearing (mag) Surface Threshold Offset Overrun Length
18 100 ft / 30 m 6,518 ft / 1,987 m 189.02° 188.39° Asphalt 0 ft / 0 m 0 ft / 0 m
36 100 ft / 30 m 6,518 ft / 1,987 m 9.02° 8.39° Asphalt 0 ft / 0 m 0 ft / 0 m